Location: Voyageurs National Park
(48.5020°N, 92.9292°W)
Time: 12:04:39
(UTC-06:00)

Cosmos 1709 Rocket - Pass Details

Date: 19 January 2018
Orbit: 948 x 1002 km, 82.9° (Epoch: 24 February)

Event Time Altitude Azimuth Distance (km) Brightness Sun altitude
Rises 05:41:54 0° 202° (SSW) 3,678 6.9 -21.7°
Reaches altitude 10° 05:44:28 10° 207° (SSW) 2,741 6.2 -21.2°
Maximum altitude 05:50:37 55° 284° (WNW) 1,191 4.1 -20.2°
Drops below altitude 10° 05:56:54 10° 2° (N) 2,784 6.3 -19.2°
Sets 05:59:31 0° 7° (N) 3,740 7.0 -18.8°
